Franklin, NC

1:13 PM EDT on August 27, 2016 (GMT -0400)
Franklin

Weather History for K1A5 - October, 2012

Change the Weather History Date:

Wednesday, October 17, 2012

  Actual Average (KTOC) Record (KTOC)
Temperature  
Mean Temperature 50 °F -  
Max Temperature 68 °F 73 °F 79 °F (2014)
Min Temperature 33 °F 48 °F 41 °F (2015)
Degree Days  
Heating Degree Days 14    
Moisture  
Dew Point 37 °F    
Average Humidity 73    
Maximum Humidity 100    
Minimum Humidity 26    
Precipitation  
Precipitation 0.00 in - - ()
Sea Level Pressure  
Sea Level Pressure 29.95 in    
Wind  
Wind Speed 1 mph (SE)    
Max Wind Speed 9 mph    
Max Gust Speed 17 mph    
Visibility 9 miles    
Events Fog    
Averages and records for this station are not official NWS values.
T = Trace of Precipitation, MM = Missing Value Source: NWS Daily Summary

Daily Weather History Graph

Daily Weather History Graph

Search for Another Location

Airport or City:

Trip Planner

Search our weather history database for the weather conditions in past years. The results will help you decide how hot, cold, wet, or windy it might be!

Date:

Astronomy

Oct. 17, 2012 Rise Set
Actual Time 7:41 AM EDT 6:55 PM EDT
Civil Twilight 7:16 AM EDT 7:20 PM EDT
Nautical Twilight 6:46 AM EDT 7:50 PM EDT
Astronomical Twilight 6:17 AM EDT 8:19 PM EDT
Moon 10:08 AM EDT (10/17) 8:37 PM EDT (10/17)
Length of Visible Light 12h 04m
Length of Day
11h 13m
Waxing Crescent, 7% of the Moon is Illuminated
Oct 17
Waxing Crescent
Oct 21
First Quarter
Oct 29
Full
Nov 6
Last Quarter
Nov 13
New

Hourly Weather History & Observations

Time (EDT) Temp. Dew Point Humidity Pressure Visibility Wind Dir Wind Speed Gust Speed Precip Events Conditions
12:15 AM 39.2 °F 37.4 °F 93% 29.97 in 10.0 mi Calm Calm - N/A   Clear
12:35 AM 39.2 °F 37.4 °F 93% 29.98 in 10.0 mi Calm Calm - N/A   Clear
12:55 AM 37.4 °F 35.6 °F 93% 29.99 in 10.0 mi Calm Calm - N/A   Clear
1:15 AM 37.4 °F 37.4 °F 100% 29.99 in 10.0 mi Calm Calm - N/A   Clear
1:35 AM 37.4 °F 35.6 °F 93% 29.99 in 7.0 mi Calm Calm - N/A   Clear
1:55 AM 37.4 °F 35.6 °F 93% 29.99 in 7.0 mi Calm Calm - N/A   Clear
2:15 AM 37.4 °F 35.6 °F 93% 29.99 in 10.0 mi Calm Calm - N/A   Clear
2:35 AM 35.6 °F 35.6 °F 100% 29.99 in 7.0 mi Calm Calm - N/A   Clear
2:55 AM 35.6 °F 35.6 °F 100% 29.99 in 7.0 mi Calm Calm - N/A   Clear
3:15 AM 35.6 °F 35.6 °F 100% 29.99 in 7.0 mi Calm Calm - N/A   Clear
3:35 AM 35.6 °F 35.6 °F 100% 29.98 in 10.0 mi Calm Calm - N/A   Clear
3:55 AM 35.6 °F 35.6 °F 100% 29.98 in 7.0 mi Calm Calm - N/A   Clear
4:15 AM 35.6 °F 35.6 °F 100% 29.97 in 10.0 mi Calm Calm - N/A   Clear
4:35 AM 35.6 °F 35.6 °F 100% 29.97 in 10.0 mi Calm Calm - N/A   Clear
4:55 AM 35.6 °F 35.6 °F 100% 29.97 in 7.0 mi Calm Calm - N/A   Clear
5:15 AM 35.6 °F 35.6 °F 100% 29.97 in 10.0 mi Calm Calm - N/A   Clear
5:35 AM 35.6 °F 35.6 °F 100% 29.98 in 7.0 mi Calm Calm - N/A   Clear
5:55 AM 35.6 °F 33.8 °F 93% 29.99 in 10.0 mi Calm Calm - N/A   Clear
6:15 AM 33.8 °F 33.8 °F 100% 29.99 in 1.8 mi Calm Calm - N/A   Mist
6:35 AM 33.8 °F 33.8 °F 100% 29.99 in 2.5 mi Calm Calm - N/A   Scattered Clouds
6:55 AM 33.8 °F 33.8 °F 100% 30.00 in 10.0 mi Calm Calm - N/A   Scattered Clouds
7:15 AM 33.8 °F 33.8 °F 100% 30.00 in 4.0 mi Calm Calm - N/A   Scattered Clouds
7:35 AM 33.8 °F 33.8 °F 100% 30.01 in 7.0 mi Calm Calm - N/A   Mostly Cloudy
7:55 AM 33.8 °F 33.8 °F 100% 30.01 in 7.0 mi Calm Calm - N/A   Mostly Cloudy
8:15 AM 33.8 °F 33.8 °F 100% 30.01 in 0.2 mi Calm Calm - N/A Fog Fog
8:35 AM 35.6 °F 35.6 °F 100% 30.01 in 0.2 mi Calm Calm - N/A Fog Fog
8:55 AM 35.6 °F 35.6 °F 100% 30.02 in 0.2 mi Calm Calm - N/A Fog Fog
9:15 AM 37.4 °F 35.6 °F 93% 30.02 in 0.2 mi Calm Calm - N/A Fog Fog
9:35 AM 39.2 °F 37.4 °F 93% 30.02 in 0.2 mi Calm Calm - N/A Fog Fog
9:55 AM 41.0 °F 41.0 °F 100% 30.02 in 10.0 mi Calm Calm - N/A   Scattered Clouds
10:15 AM 44.6 °F 44.6 °F 100% 30.01 in 10.0 mi Calm Calm - N/A   Clear
10:35 AM 48.2 °F 41.0 °F 76% 30.02 in 10.0 mi Calm Calm - N/A   Clear
10:55 AM 51.8 °F 41.0 °F 67% 30.02 in 10.0 mi Calm Calm - N/A   Clear
11:15 AM 53.6 °F 42.8 °F 67% 30.01 in 10.0 mi Calm Calm - N/A   Clear
11:35 AM 57.2 °F 41.0 °F 55% 30.00 in 10.0 mi ENE 3.5 mph - N/A   Clear
11:55 AM 59.0 °F 42.8 °F 55% 30.00 in 10.0 mi Calm Calm - N/A   Clear
12:15 PM 62.6 °F 39.2 °F 42% 29.98 in 10.0 mi ESE 4.6 mph - N/A   Clear
12:35 PM 64.4 °F 37.4 °F 37% 29.96 in 10.0 mi ESE 4.6 mph - N/A   Clear
12:55 PM 66.2 °F 32.0 °F 28% 29.95 in 10.0 mi ESE 4.6 mph - N/A   Clear
1:15 PM 68.0 °F 32.0 °F 26% 29.94 in 10.0 mi ESE 8.1 mph - N/A   Clear
1:35 PM 68.0 °F 32.0 °F 26% 29.94 in 10.0 mi ESE 8.1 mph - N/A   Clear
1:55 PM 68.0 °F 32.0 °F 26% 29.92 in 10.0 mi SSE 8.1 mph - N/A   Clear
2:15 PM 68.0 °F 33.8 °F 28% 29.92 in 10.0 mi ESE 9.2 mph - N/A   Clear
2:35 PM 68.0 °F 33.8 °F 28% 29.91 in 10.0 mi ESE 6.9 mph - N/A   Clear
2:55 PM 68.0 °F 35.6 °F 30% 29.90 in 10.0 mi ESE 6.9 mph - N/A   Clear
3:15 PM 68.0 °F 33.8 °F 28% 29.89 in 10.0 mi SE 8.1 mph 17.3 mph N/A   Clear
3:35 PM 68.0 °F 35.6 °F 30% 29.89 in 10.0 mi ESE 8.1 mph 17.3 mph N/A   Clear
3:55 PM 68.0 °F 35.6 °F 30% 29.89 in 10.0 mi SE 9.2 mph - N/A   Clear
4:15 PM 68.0 °F 35.6 °F 30% 29.89 in 10.0 mi SE 5.8 mph - N/A   Clear
4:35 PM 68.0 °F 35.6 °F 30% 29.89 in 10.0 mi SW 4.6 mph - N/A   Clear
4:55 PM 68.0 °F 35.6 °F 30% 29.89 in 10.0 mi ESE 4.6 mph - N/A   Clear
5:15 PM 66.2 °F 35.6 °F 32% 29.89 in 10.0 mi ESE 6.9 mph - N/A   Clear
5:35 PM 66.2 °F 35.6 °F 32% 29.89 in 10.0 mi SE 5.8 mph - N/A   Clear
5:55 PM 64.4 °F 37.4 °F 37% 29.89 in 10.0 mi SE 6.9 mph - N/A   Clear
6:15 PM 64.4 °F 37.4 °F 37% 29.89 in 10.0 mi SSW 5.8 mph - N/A   Clear
6:35 PM 62.6 °F 37.4 °F 39% 29.89 in 10.0 mi South 3.5 mph - N/A   Clear
6:55 PM 60.8 °F 39.2 °F 45% 29.89 in 10.0 mi ESE 4.6 mph - N/A   Clear
7:15 PM 55.4 °F 42.8 °F 63% 29.90 in 10.0 mi Calm Calm - N/A   Clear
7:35 PM 51.8 °F 42.8 °F 71% 29.91 in 10.0 mi Calm Calm - N/A   Clear
7:55 PM 50.0 °F 42.8 °F 76% 29.91 in 10.0 mi Calm Calm - N/A   Clear
8:15 PM 50.0 °F 42.8 °F 76% 29.92 in 10.0 mi Calm Calm - N/A   Clear
8:35 PM 46.4 °F 42.8 °F 87% 29.93 in 10.0 mi Calm Calm - N/A   Clear
8:55 PM 46.4 °F 42.8 °F 87% 29.93 in 10.0 mi Calm Calm - N/A   Clear
9:15 PM 46.4 °F 42.8 °F 87% 29.93 in 10.0 mi Calm Calm - N/A   Clear
9:35 PM 44.6 °F 41.0 °F 87% 29.93 in 10.0 mi Calm Calm - N/A   Clear
9:55 PM 44.6 °F 41.0 °F 87% 29.93 in 10.0 mi Calm Calm - N/A   Clear
10:35 PM 44.6 °F 41.0 °F 87% 29.92 in 10.0 mi Calm Calm - N/A   Clear
10:55 PM 42.8 °F 41.0 °F 93% 29.91 in 10.0 mi Calm Calm - N/A   Clear
11:15 PM 42.8 °F 41.0 °F 93% 29.90 in 10.0 mi Calm Calm - N/A   Clear
11:55 PM 41.0 °F 37.4 °F 87% 29.89 in 10.0 mi Calm Calm - N/A   Clear